This demonstration page uses our WeatherBlox Daily Observations layout. Learn more.

Left ArrowRight Arrow

39.12711, -84.51439

Hourly Observations for May 13, 2016

Temp ( °F °C ) Dew Point ( °F °C ) Humidity (%) Winds ( mph kmh ) Pressure ( in mb ) Visibility ( mi km ) Precip ( " mm )
12:53 am 00:53 Mostly Cloudy 60 15.6 58 14.4 93 93 W 5 7 29.96 1015 10 16 0.00 0.03
1:53 am 01:53 Cloudy 61 16.1 59 15 93 93 SW 5 7 29.96 1015 10 16 0.00 0.00
2:53 am 02:53 Partly Cloudy 60 15.6 58 14.4 93 93 W 8 13 29.96 1015 10 16 0.00 0.00
3:53 am 03:53 Clear 59 15 56 13.3 90 90 W 7 11 29.97 1015 10 16 0.00 0.00
4:53 am 04:53 Clear 58 14.4 53 11.7 84 84 WNW 5 7 29.98 1015 10 16 0.00 0.00
5:53 am 05:53 Clear 56 13.3 52 11.1 87 87 W 7 11 30.00 1016 10 16 0.00 0.00
6:53 am 06:53 Sunny 55 12.8 52 11.1 90 90 W 6 9 30.02 1017 10 16 0.00 0.00
7:53 am 07:53 Sunny 57 13.9 52 11.1 83 83 W 8 13 30.04 1017 10 16 0.00 0.00
8:53 am 08:53 Sunny 59 15 50 10 72 72 WNW 10 17 30.05 1018 10 16 0.00 0.00
9:53 am 09:53 Mostly Sunny 60 15.6 50 10 70 70 W 9 15 30.05 1018 10 16 0.00 0.00
10:53 am 10:53 Partly Cloudy 62 16.7 48 8.9 60 60 W 10 17 30.06 1018 10 16 0.00 0.00
11:53 am 11:53 Mostly Cloudy 62 16.7 49 9.4 62 62 W 5 7 30.06 1018 10 16 0.00 0.00
12:53 pm 12:53 Mostly Cloudy 65 18.3 50 10 59 59 WSW 10 17 30.05 1018 10 16 0.00 0.00
1:53 pm 13:53 Partly Cloudy 65 18.3 49 9.4 56 56 W 13 20 30.04 1017 10 16 0.00 0.00
2:45 pm 14:45 Mostly Cloudy 67 19.4 49 9.4 53 53 WNW 15 24 30.00 1016 10 16 0.00 0.00
2:53 pm 14:53 Mostly Cloudy 67 19.4 49 9.4 53 53 WSW 9 15 30.04 1017 10 16 0.00 0.00
3:53 pm 15:53 Partly Cloudy 67 19.4 49 9.4 53 53 VRB 5 7 30.02 1017 10 16 0.00 0.00
4:53 pm 16:53 Sunny 67 19.4 48 8.9 51 51 VRB 6 9 30.00 1016 10 16 0.00 0.00
5:53 pm 17:53 Sunny 67 19.4 49 9.4 53 53 SW 7 11 29.98 1015 10 16 0.00 0.00
6:53 pm 18:53 Sunny 66 18.9 48 8.9 52 52 WSW 9 15 29.98 1015 10 16 0.00 0.00
7:53 pm 19:53 Sunny 65 18.3 48 8.9 54 54 WSW 8 13 29.97 1015 10 16 0.00 0.00
8:53 pm 20:53 Mostly Clear 60 15.6 52 11.1 75 75 Calm 29.96 1015 10 16 0.00 0.00
9:53 pm 21:53 Clear 56 13.3 51 10.6 84 84 Calm 29.95 1014 10 16 0.00 0.00
10:53 pm 22:53 Clear 54 12.2 51 10.6 90 90 Calm 29.94 1014 10 16 0.00 0.00
11:53 pm 23:53 Clear 53 11.7 52 11.1 96 96 Calm 29.94 1014 10 16 0.00 0.00

Powered by AerisWeather